Location: Unspecified
(42.3650°N, 71.1030°W)
Time: 22:31:14
(UTC+00:00)

NOSS 2-1 (E) - Pass Details

Date: 02 March 2024
Orbit: 384 x 1753 km, 63.3° (Epoch: 08 April)

Event Time Altitude Azimuth Distance (km) Brightness Sun altitude
Rises 23:37:28 0° 321° (NW) 2,703 7.5 -12.1°
Reaches altitude 10° 23:39:23 10° 318° (NW) 1,938 6.8 -12.5°
Maximum altitude 23:43:41 67° 236° (WSW) 807 4.3 -13.3°
Drops below altitude 10° 23:49:50 10° 155° (SSE) 2,736 6.6 -14.4°
Sets 23:52:56 0° 153° (SSE) 3,926 7.4 -15.0°
